Home   Weather   Neuwied   Past weeks

Flag for Germany Past Weather in Neuwied, Rhineland-Palatinate, Germany — Yesterday and Last 2 Weeks

50 °F


Feels Like: 50 °F
Forecast: 48 / 55 °F
Wind: 2 mph from Northwest

Location: Buechel

Current Time: Oct 24, 2016 at 11:59:28 PM

Latest Report: Oct 24, 2016 at 11:20 PM

Visibility: 0 mi

Pressure: 29.98 "Hg

Humidity: 100%

Dew Point: 50 °F

Location of NeuwiedLocation

Past Weather in Neuwied — Graph


Neuwied Temperature Yesterday

Maximum temperature yesterday: 43 °F (at 3:20 PM)
Minimum temperature yesterday: 37 °F (at 5:20 AM)
Average temperature yesterday: 40 °F

High & Low Weather Summary for the Past Weeks

High61 °F (Oct 16, 3:20 PM)100% (Oct 12, 9:20 AM)30.27 "Hg (Oct 12, 9:20 AM)
Low36 °F (Oct 10, 4:20 AM)54% (Oct 11, 2:20 PM)29.68 "Hg (Oct 14, 5:20 PM)
Average44 °F91%29.99 "Hg
* Reported Oct 9 10:20 PM — Oct 24 10:20 PM, Neuwied, Weather by CustomWeather, © 2016

Note: Actual official high and low records may vary slightly from our data, if they occured in-between our weather recording intervals... More about our weather records


Neuwied Weather History for the Previous 24 Hours

Scroll right to see more
Time TempWeatherWind HumidityBarometerVisibility
10:20 PM
Mon, Oct 24
50 °FCool.3 mph100%29.95 "Hg1 mi
9:20 PM48 °FCool.3 mph100%29.95 "Hg0 mi
8:20 PM48 °FCool.3 mph100%29.95 "Hg0 mi
7:20 PM50 °FCool.No wind100%29.92 "Hg0 mi
6:20 PM50 °FCool.5 mph100%29.92 "Hg0 mi
5:20 PM50 °FFog.6 mph100%29.89 "Hg0 mi
4:48 PM50 °FFog.3 mph100%29.89 "Hg1 mi
4:20 PM50 °FFog.2 mph94%29.89 "Hg1 mi
3:20 PM48 °FFog.2 mph100%29.89 "Hg1 mi
2:20 PM48 °FLight rain. Fog.6 mph100%29.89 "Hg1 mi
1:20 PM46 °FLight rain. Fog.6 mph100%29.89 "Hg1 mi
12:20 PM46 °FLight rain. Fog.6 mph100%29.89 "Hg1 mi
11:57 AM46 °FLight rain. Fog.6 mph100%29.89 "Hg1 mi
11:20 AM46 °FFog.7 mph100%29.89 "Hg0 mi
10:20 AM46 °FLight rain. Fog.5 mph100%29.89 "Hg0 mi
9:20 AM45 °FLight rain. Fog.5 mph100%29.89 "Hg0 mi
8:20 AM45 °FLight rain. Fog.6 mph100%29.86 "Hg0 mi
7:20 AM45 °FFog.7 mph100%29.86 "Hg0 mi
6:20 AM45 °FFog.6 mph100%29.86 "Hg1 mi
5:20 AM43 °FFog.7 mph100%29.86 "Hg1 mi
4:20 AM43 °FQuite cool.5 mph100%29.86 "Hg1 mi
3:20 AM43 °FQuite cool.6 mph100%29.86 "Hg1 mi
2:20 AM43 °FQuite cool.5 mph100%29.86 "Hg1 mi
1:20 AM43 °FQuite cool.5 mph100%29.86 "Hg1 mi
12:20 AM43 °FQuite cool.6 mph100%29.86 "Hg1 mi
11:20 PM
Sun, Oct 23
41 °FQuite cool.5 mph100%29.86 "Hg1 mi
Weather by CustomWeather, © 2016

See weather overviewHow to use our weather pages